Regional Weather Roundup
Issued by NWS Glasgow, MT

Home | Current Version | Previous Version | Text Only | Print | Product List | Glossary On
Versions: 1 2 3 4 5 6 7 8 9 10 11 12 13 14 15 16 17 18 19 20 21 22 23 24 25 26 27 28 29 30 31 32 33 34 35 36 37 38 39 40 41 42 43 44 45 46 47 48 49 50
000
ASUS45 KGGW 120515
RWRGGW
HOURLY REGIONAL WEATHER ROUNDUP FOR NORTHEAST MONTANA
NATIONAL WEATHER SERVICE GLASGOW MONTANA
1000 PM MST THU FEB 11 2016

NOTE: "FAIR" INDICATES FEW OR NO CLOUDS BELOW 12,000 FEET WITH NO
SIGNIFICANT WEATHER AND/OR OBSTRUCTIONS TO VISISBILITY.

NORTHEAST MONTANA


CITY           SKY/WX    TMP DP  RH WIND       PRES   REMARKS
GLASGOW        CLOUDY    30  26  85 N5        30.28R
PLENTYWOOD       N/A     18  15  88 N7          N/A
WOLF POINT     CLOUDY    28  20  71 E6        30.32R
JORDAN           N/A     31  29  92 CALM      30.27R
WINNETT          N/A     32  30  93 CALM        N/A
SIDNEY         CLOUDY    23  16  74 NE6       30.32R
GLENDIVE       CLOUDY    25  21  86 E3        30.30S
MALTA            N/A     33  30  88 E2          N/A
SCOBEY           N/A     19  11  70 N7        30.27R

FORT PECK REPORTS


CITY           SKY/WX    TMP DP  RH WIND       PRES   REMARKS
FORT PECK        N/A     31  28  89 CALM        N/A
THE PINES        N/A     32  28  85 W1          N/A

SOUTHEAST MONTANA


CITY           SKY/WX    TMP DP  RH WIND       PRES   REMARKS
BILLINGS       MOCLDY    44  25  47 CALM      30.25R
MILES CITY     CLOUDY    30  26  85 CALM      30.27R
BAKER          CLOUDY    27  21  78 NW9       30.24S
LIVINGSTON     CLOUDY    42  25  50 NW6       30.23S

CENTRAL MONTANA


CITY           SKY/WX    TMP DP  RH WIND       PRES   REMARKS
HAVRE          CLOUDY    31  29  92 CALM      30.27S
LEWISTOWN      CLOUDY    36  30  79 SE6       30.25S
GREAT FALLS    CLOUDY    33  28  81 E5        30.26S
CUT BANK       MOCLDY    35  29  78 S3        30.25F
HELENA         CLOUDY    41  28  60 W3        30.23S
BUTTE          CLOUDY    34  30  85 SE6       30.26F
BOZEMAN        CLOUDY    35  31  85 CALM      30.25F

WESTERN MONTANA


CITY           SKY/WX    TMP DP  RH WIND       PRES   REMARKS
MISSOULA       CLOUDY    37  32  82 SW7       30.26F
KALISPELL      NOT AVBL

NORTH DAKOTA


CITY           SKY/WX    TMP DP  RH WIND       PRES   REMARKS
WILLISTON      CLOUDY    21  16  81 N7        30.33R
DICKINSON      CLOUDY    21  17  84 N6        30.23R
MINOT          CLOUDY    19  10  68 N9        30.30R
BISMARCK       CLOUDY    19  12  74 N3        30.30R

SOUTHERN SASKATCHEWAN


CITY           SKY/WX    TMP DP  RH WIND       PRES   REMARKS
REGINA         CLOUDY     9   3  78 N8        30.40R
ESTEVAN        PTCLDY    10   5  79 N9        30.34R
SWIFT CURRENT  CLOUDY    12  12 100 E13       30.32R WCI  -3




USA.gov is the U.S. government's official web portal to all federal, state and local government web resources and services.